Location: Clifton Park
(41.4873°N, 81.8024°W)
Time: 17:15:14
(UTC+00:00)

STARLINK-78 - Pass Details

Date: 21 January 2020
Orbit: 528 x 531 km, 53.0° (Epoch: 26 February)

Event Time Altitude Azimuth Distance (km) Brightness Sun altitude
Exits shadow 10:33:49 54° 135° (SE) 647 4.1 -25.0°
Drops below altitude 10° 10:37:44 10° 60° (ENE) 1,780 6.9 -24.2°
Sets 10:39:59 0° 56° (NE) 2,674 7.9 -23.8°
